Regional Weather Roundup
Issued by NWS

Home | Current Version | Previous Version | Text Only | Print | Product List | Glossary On
Versions: 1 2 3 4 5 6 7 8 9 10 11 12 13 14 15 16 17 18 19 20 21 22 23 24 25 26 27 28 29 30 31 32 33 34 35 36 37 38 39 40 41 42 43 44 45 46 47 48 49 50
000
ASUS46 KLOX 181112
RWRCA

SOUTHERN CALIFORNIA WEATHER ROUNDUP
NATIONAL WEATHER SERVICE OXNARD CALIFORNIA
400 AM PDT THU SEP 18 2014

NOTE: "FAIR" INDICATES FEW OR NO CLOUDS BELOW 12,000 FEET WITH NO
SIGNIFICANT WEATHER AND/OR OBSTRUCTIONS TO VISIBILITY.

  -  STATIONS PRECEEDED BY AN ASTERISK (*) ARE NOT NWS OR FAA
     STATIONS AND ARE NOT SUBJECT TO NWS AND FAA QUALITY CONTROL.

CAZ041-042-087-181200-
LA AND ORANGE COUNTY COASTAL AREAS


CITY           SKY/WX    TMP DP  RH WIND       PRES   REMARKS
L.A. DOWNTOWN  CLEAR     68  59  73 CALM      29.79S
L.A. AIRPORT   CLEAR     68  61  78 CALM      29.80R
LONG BEACH     CLEAR     69  61  75 NE3       29.79S

CITY           SKY/WX    TMP DP  RH WIND       PRES   REMARKS
AVALON           N/A     64 N/A N/A MISG        N/A
FULLERTON      CLEAR     70  61  73 SE3       29.79S
*GETTY CENTER    N/A     66  55  68 NE6         N/A
HAWTHORNE      CLEAR     69  63  81 CALM      29.79S
*LEO CARRILLO    N/A     65  56  74 W5          N/A
*LOS ALAMITOS  FAIR      67  62  84 S5        29.80S
*REDONDO BEACH   N/A     67  61  81 W1        29.79S
SANTA ANA      CLEAR     72  62  71 CALM      29.80S
STA MONICA APT CLEAR     69  58  67 N3        29.79S
*STA MON PIER    N/A     69  64  84 CALM      29.79S
*UCLA            N/A     68  55  64 N2        29.77F

$$

CAZ547-548-048-181200-
LA COUNTY VALLEYS AND INLAND EMPIRE


CITY           SKY/WX    TMP DP  RH WIND       PRES   REMARKS
BURBANK        CLEAR     70  56  61 SE7       29.81R
VAN NUYS       CLEAR     71  56  58 SE3       29.81R

CITY           SKY/WX    TMP DP  RH WIND       PRES   REMARKS
CORONA AIRPORT SUNNY     65  60  83 CALM      29.81S
*CHATSWORTH      N/A     68  56  64 CALM      29.75S
CHINO          CLEAR     67  60  78 W6        29.82S
MARCH AFB      CLEAR     68  53  60 CALM      29.83S
*NORTHRIDGE      N/A     68  55  64 CALM        N/A
ONTARIO        CLEAR     70  59  68 W5        29.81S
*PASADENA        N/A     70  59  68 CALM        N/A
RIVERSIDE      CLEAR     70  60  70 CALM      29.81S
SAN BERNARDINO NOT AVBL
*SAN GABRIEL     N/A     70  57  64 CALM      29.75S
*SAN RAFAEL HI   N/A     66  57  71 SW9         N/A
*SAUGUS          N/A     65  56  73 NW2         N/A
*WHITEMAN AP   NOT AVBL
*WOODLAND HILL   N/A     64  54  68 W1          N/A

$$

CAZ054-055-181200-
LA AND SAN BERNARDINO COUNTY MOUNTAINS


CITY           SKY/WX    TMP DP  RH WIND       PRES   REMARKS
*BIG BEAR AIRP SUNNY     46  43  87 CALM      30.14F
MT WILSON NWS    N/A     63  25  23 MISG        N/A
SANDBERG       CLEAR     66  44  45 SW7       29.98S
*WARM SPRINGS    N/A     65  48  55 S7          N/A

$$

CAZ028-029-059-060-099-181200-
ANTELOPE VALLEY AND SURROUNDING AREAS


CITY           SKY/WX    TMP DP  RH WIND       PRES   REMARKS
LANCASTER      CLEAR     68  46  45 W10       29.84S
PALMDALE       CLEAR     80  37  21 SW16G23   29.84F
*POPPY PARK      N/A     73  46  37 W7G18       N/A

CITY           SKY/WX    TMP DP  RH WIND       PRES   REMARKS
29 PALMS       CLEAR     80  55  42 CALM      29.86S
BARSTOW/DAGGET CLEAR     79  48  33 W6        29.79S
BISHOP         CLEAR     60  39  45 N8        29.83F
CHINA LAKE     CLEAR     81  42  25 SW16G24   29.77S
EDWARDS AFB    CLEAR     74  47  38 SW8       29.81S
MOJAVE         FAIR      73  48  40 SW7       29.85S
NEEDLES        CLEAR     84  68  58 E3        29.73S
VICTORVILLE    CLEAR     72  48  43 S8        29.87S

$$

CAZ039-040-181200-
VENTURA AND SANTA BARBARA COUNTY COAST


CITY           SKY/WX    TMP DP  RH WIND       PRES   REMARKS
CAMARILLO      CLEAR     67  57  70 E5        29.80S
NWS OXNARD       N/A     63  57  83 CALM      29.80R
OXNARD AIRPORT CLEAR     61  57  87 CALM      29.80R
*POINT MUGU    CLEAR     67  59  75 CALM      29.80S
SBA APT/GOLETA CLEAR     65  58  78 CALM      29.78R
*VENTURA         N/A     62  57  83 CALM      29.84S

$$

CAZ044-045-181200-
VENTURA COUNTY VALLEYS


CITY           SKY/WX    TMP DP  RH WIND       PRES   REMARKS
*SIMI VALLEY     N/A     61  55  80 CALM      29.75S
*OJAI            N/A     58  54  87 CALM      29.73F
*FILLMORE        N/A     60  55  84 CALM      29.70S

$$

CAZ053-181200-
VENTURA COUNTY MOUNTAINS


CITY           SKY/WX    TMP DP  RH WIND       PRES   REMARKS
*LOCKWOOD VLY    N/A     45  30  57 MISG        N/A
*ROSE VALLEY     N/A     46  39  76 MISG        N/A

$$

CAZ034-035-036-181200-
CENTRAL COAST AND SANTA YNEZ VALLEY


CITY           SKY/WX    TMP DP  RH WIND       PRES   REMARKS
SAN LUIS OBISP CLOUDY    63  55  75 SE3       29.85S
SANTA MARIA    MOCLDY    61  56  83 CALM      29.86R

CITY           SKY/WX    TMP DP  RH WIND       PRES   REMARKS
*CAL POLY SLO    N/A     63  57  82 CALM        N/A
*LOMPOC        PTCLDY    55  50  82 E3        29.85S
*PISMO BEACH     N/A     62  57  84 NE1       29.85S
*SANTA YNEZ    FAIR      55  50  82 CALM      29.85F

$$

CAZ037-038-051-181200-
SAN LUIS OBISPO COUNTY INTERIOR AND CUYAMA VALLEY


CITY           SKY/WX    TMP DP  RH WIND       PRES   REMARKS
*CUYAMA          N/A     56  40  56 SE1       29.77R
PASO ROBLES    CLEAR     60  53  77 N3        29.84S

$$

CAZ032-033-061-181200-
SOUTHERN DESERTS


CITY           SKY/WX    TMP DP  RH WIND       PRES   REMARKS
BLYTHE         CLEAR     82  70  66 CALM      29.70S
IMPERIAL       CLEAR     87  65  47 S5        29.65F
PALM SPRINGS   CLEAR     88  57  34 W3        29.71S
THERMAL        CLEAR     78  62  57 CALM      29.65S

$$

ELSEWHERE ACROSS THE WESTERN UNITED STATES AND MEXICO


CITY           SKY/WX    TMP DP  RH WIND       PRES   REMARKS
DENVER, CO     PTCLDY    60  42  51 SW12      30.04S
GRAND CANYON,  CLEAR     45  43  93 CALM      30.13S
HONOLULU, HI   MOCLDY    79  72  78 NW6       29.95F
KAHULUI, MAUI  CLEAR     73  70  88 S3        29.94F
LAKE TAHOE, CA CLEAR     58  41  53 SW12      29.98S
LAS VEGAS, NV  PTCLDY    83  59  44 S9        29.74F
MAMMOTH LAKES, FAIR      55  32  41 W8        30.06S
MEXICO CITY, M CLEAR     57  50  77 W5        30.28S
PHOENIX, AZ    CLEAR     79  64  60 CALM      29.74S
PORTLAND, OR   CLOUDY    63  59  87 CALM      29.74R
RENO, NV       MOCLDY    67  44  43 NW7       29.88S SMOKE
SALT LAKE CITY PTCLDY    71  43  36 SE13      29.90R
SAN DIEGO, CA  PTCLDY    73  67  81 CALM      29.82S
SAN FRANCISCO, MOCLDY    70  65  84 S5        29.77S
SAN JOSE, CA   CLOUDY    69  62  78 S6        29.79S
SEATTLE, WA    CLOUDY    59  58  96 CALM      29.74S
TIJUANA, MEX   PTCLDY    70  63  78 W5        29.85R

$$

STATION/POSITION TIME  TEMP    WIND        PRES    VSBY  WAVE
                       AIR SEA DIR/SP/G                  HT/PER
                 (UTC) (F)     (DEG/KT/KT) (MB)    (MI)  (FT/S)
POINT ARGUELLO B NOT AVBL
WEST SANTA BARBA 1100   62 59  310/ 10/ 12 1009.3F         5/14
POINT CONCEPTION NOT AVBL
EAST SANTA BARBA 1100   66     270/ 14     1008.8R
SANTA MONICA BAY 1100   70 71  280/ 14/ 16 1008.7R         6/ 7



USA.gov is the U.S. government's official web portal to all federal, state and local government web resources and services.